Regional Weather Roundup
Issued by NWS Memphis, TN

Home | Current Version | Previous Version | Text Only | Print | Product List | Glossary On
Versions: 1 2 3 4 5 6 7 8 9 10 11 12 13 14 15 16 17 18 19 20 21 22 23 24 25 26 27 28 29 30 31 32 33 34 35 36 37 38 39 40 41 42 43 44 45 46 47 48 49 50
000
ASUS44 KMEG 252210
RWRMEG
MEMPHIS CWA HOURLY WEATHER ROUNDUP
NATIONAL WEATHER SERVICE MEMPHIS TN
500 PM CDT FRI JUL 25 2014

...WEST TENNESSEE...

CITY           SKY/WX    TMP DP  RH WIND       PRES   REMARKS
MEMPHIS INTL   MOSUNNY   87  62  43 N8        30.02R
NWS MEMPHIS      N/A     84 N/A N/A MISG        N/A
JACKSON        MOSUNNY   84  62  47 CALM      30.02S
LEXINGTON      SUNNY     81  63  54 N6        30.03S
SAVANNAH       MOSUNNY   84  64  51 N5        30.04R
DYERSBURG      PTSUNNY   82  59  44 NE8       30.03S
PARIS          CLOUDY    78  63  60 N5        30.05F


...EASTERN ARKANSAS...

CITY           SKY/WX    TMP DP  RH WIND       PRES   REMARKS
JONESBORO      SUNNY     84  64  50 E5        30.00F
WEST MEMPHIS   SUNNY     86  63  45 N7        30.00R
BATESVILLE     SUNNY     88  70  55 S6        29.99F HX  92
NEWPORT        SUNNY     85  69  58 E7        30.01F
WALNUT RIDGE   MOSUNNY   82  48  30 SE5       29.99F
BLYTHEVILLE    PTSUNNY   85  65  51 VRB3      30.02F
SEARCY         SUNNY     86  71  60 VRB6      30.00S HX  91
STUTTGART      MOSUNNY   86  70  58 S6        30.00F HX  90
PINE BLUFF     MOSUNNY   86  68  54 SW3       29.99S
MONTICELLO     SUNNY     88  68  51 CALM      29.99S HX  91


...NORTH MISSISSIPPI...

CITY           SKY/WX    TMP DP  RH WIND       PRES   REMARKS
TUPELO         SUNNY     85  62  46 E6        30.00S
OLIVE BRANCH   MOSUNNY   84  63  48 E6        30.03R
CLARKSDALE     SUNNY     84  70  61 CALM      30.02R
CORINTH        MOSUNNY   84  63  48 N5        30.03R
GRENADA        SUNNY     84  63  48 CALM      30.00S
GREENWOOD      SUNNY     85  62  46 N3        29.99F
COLUMBUS       SUNNY     86  61  43 VRB2      30.00F
STARKVILLE     FAIR      84  63  48 NW3       30.01S
GOLDEN TRIANGL MOSUNNY   88  66  48 N3        30.00F HX  90


...SOUTHEAST MISSOURI...

CITY           SKY/WX    TMP DP  RH WIND       PRES   REMARKS
WEST PLAINS    SUNNY     85  66  53 S10G17    30.00F
POPLAR BLUFF   PTSUNNY   81  63  54 E5        29.99F HAZE
CAPE GIRARDEAU PTSUNNY   77  64  64 E8        29.98F


...NORTHWEST ALABAMA...

CITY           SKY/WX    TMP DP  RH WIND       PRES   REMARKS
MUSCLE SHOALS  SUNNY     85  62  46 CALM      30.02R


...MIDDLE TENNESSEE...

CITY           SKY/WX    TMP DP  RH WIND       PRES   REMARKS
NASHVILLE      PTSUNNY   86  56  35 VRB5      30.03R
CLARKSVILLE    CLOUDY    85  54  34 NW7       30.04R
DICKSON        CLOUDY    81  59  47 NW7       30.05R
COLUMBIA       MOSUNNY   84  64  51 N5        30.03R
LEWISBURG      MOSUNNY   83  58  42 N3        30.03R


...WESTERN KENTUCKY...

CITY           SKY/WX    TMP DP  RH WIND       PRES   REMARKS
PADUCAH        CLOUDY    82  62  50 NE7       30.03F
FORT CAMPBELL  CLOUDY    84  57  38 N8        30.04S


...CENTRAL ARKANSAS...

CITY           SKY/WX    TMP DP  RH WIND       PRES   REMARKS
LITTLE ROCK    MOSUNNY   88  69  53 S7        29.98F HX  92


SKY/WX REPORTED AS FAIR MEANS FEW OR NO CLOUDS BELOW
12 THOUSAND FEET.



USA.gov is the U.S. government's official web portal to all federal, state and local government web resources and services.